Location: Home
(42.5358°N, 72.7383°W)
Time: 11:40:21
(UTC-05:00)

Explorer 7 - Pass Details

Date: 01 December 2021
Orbit: 483 x 674 km, 50.3° (Epoch: 20 January)

Event Time Altitude Azimuth Distance (km) Brightness Sun altitude
Rises 09:50:07 0° 294° (WNW) 2,669 9.9 20.8°
Reaches altitude 10° 09:52:39 10° 307° (NW) 1,747 8.9 21.0°
Maximum altitude 09:56:01 26° 6° (N) 1,012 7.9 21.2°
Drops below altitude 10° 09:59:16 10° 65° (ENE) 1,685 9.4 21.5°
Sets 10:01:40 0° 78° (ENE) 2,552 10.4 21.7°
